[[{"header":{"parameterUnit":"m.s-1","parameterCategory":1,"la1":30.2991,"la2":30.254,"lo1":-89.0895,"lo2":-89.0444,"dy":0.0017,"dx":0.0017,"nx":28,"ny":28,"refTime":"2025-08-24T03:00:00:Z","depth":0,"parameterNumber":2,"parameterNumberName":"U-component_of_WINDS"},"data":[0,0,0,0,0,0,0,0,0,0,0,0,0,0,0,0,0,0,0,0,0,0,0,0,0,0,0,0,0,0,0,0,0,0,0,0,0,0,0,0,0,0,0,0,0,0,0,0,0,0,0,0,0,0,0,0,0,0,1.7643,1.7644,0,1.7745,1.7746,1.7747,1.7737,1.7736,1.7734,1.7733,1.7837,1.7841,1.7846,0,0,0,0,0,0,0,0,0,0,0,0,0,1.744,1.7443,1.7643,1.7644,1.7645,1.7744,1.7746,1.7747,1.7738,1.7736,1.7734,1.7732,1.7836,1.7841,1.7846,0,0,0,0,0,0,0,0,0,0,0,0,0,1.7533,1.7445,1.7643,1.7653,1.7654,1.7744,1.7746,1.7748,1.7738,1.7736,1.7733,1.7731,1.7834,1.784,1.7847,1.7933,0,0,1.7866,1.7869,0,0,0,0,0,0,0,0,1.7528,1.7541,1.765,1.7652,1.7654,1.7726,1.7713,1.781,1.7739,1.7706,1.7733,1.773,1.7802,1.7811,1.7835,1.7938,1.7943,1.7867,1.7871,1.7873,1.7875,0,0,0,0,0,0,0,1.7522,1.7536,1.7683,1.7651,1.7654,1.7652,1.7662,1.7731,1.7766,1.7709,1.7709,1.7721,1.7803,1.7829,1.7838,1.7944,1.7867,1.7872,1.7876,1.7879,1.8121,1.8124,0,0,0,0,0,0,1.7513,1.7531,1.768,1.7686,1.7584,1.7657,1.7669,1.7705,1.7765,1.7772,1.7723,1.772,1.7819,1.783,1.7841,1.7945,1.7873,1.7879,1.7883,1.8119,1.8122,1.8125,0,0,0,0,0,0,1.7508,1.7526,1.7676,1.7609,1.7627,1.7663,1.7704,1.7709,1.7735,1.7776,1.7782,1.7743,1.7818,1.7832,1.791,1.7948,1.7882,1.7888,1.8115,1.812,1.8123,1.8153,0,0,0,0,0,0,1.7503,1.7525,1.7558,1.7609,1.7631,1.7743,1.7706,1.7712,1.7746,1.7743,1.7796,1.7803,1.7817,1.7901,1.7916,1.7956,1.7893,1.8112,1.8117,1.8122,1.8149,1.8158,1.8165,0,0,0,0,0,1.7495,1.7563,1.756,1.7578,1.7673,1.7745,1.7757,1.7772,1.7749,1.7782,1.7809,1.7801,1.7942,1.7909,1.7926,1.7968,1.811,1.8116,1.8122,1.8145,1.8156,1.8165,0,0,0,0,0,0,1.7515,1.757,1.7567,1.7653,1.7694,1.7743,1.7786,1.7784,1.7833,1.7828,1.7845,1.7857,1.7935,1.796,1.7921,1.8054,1.8023,1.8032,1.8035,1.8045,1.8053,1.8045,1.7898,0,0,0,0,0,1.753,1.7583,1.7628,1.77,1.7721,1.775,1.7782,1.779,1.7833,1.7851,1.7883,1.7925,1.7979,1.8014,1.8066,1.8153,1.8164,1.8191,1.8199,1.8205,1.8213,1.8259,1.8271,1.8144,1.8144,1.8144,0,0,1.756,1.7596,1.7629,1.7705,1.7738,1.7792,1.7765,1.7824,1.7865,1.786,1.7934,1.7959,1.8008,1.809,1.8128,1.8114,1.8251,1.8213,1.8218,1.8222,1.8266,1.8278,1.8289,1.8148,1.8147,1.8147,0,0,1.7642,1.7676,1.7739,1.7772,1.7822,1.7841,1.7856,1.7906,1.7922,1.7997,1.7994,1.8043,1.8135,1.8169,1.8199,1.8294,1.8288,1.831,1.8352,1.8397,1.8407,1.8416,1.8447,1.8459,1.8318,1.8318,1.8318,0,1.7673,1.7756,1.7771,1.7831,1.7863,1.7862,1.7924,1.7956,1.8021,1.8043,1.8026,1.8141,1.8174,1.8263,1.8286,1.8311,1.8327,1.8303,1.8404,1.8413,1.8422,1.8452,1.8464,1.832,1.832,1.832,1.832,0,1.779,1.7848,1.7892,1.7954,1.7992,1.8053,1.8077,1.8113,1.8118,1.8139,1.8214,1.8254,1.8312,1.8335,1.834,1.8425,1.8414,1.84,1.8368,1.8436,1.8464,1.8476,1.8323,1.8323,1.8322,1.8322,0,0,1.7887,1.7956,1.7972,1.8,1.8055,1.8099,1.816,1.8217,1.8247,1.8292,1.8342,1.842,1.8408,1.8441,1.8451,1.849,1.856,1.8472,1.8473,1.8485,1.8653,1.8661,1.8674,1.8558,1.856,1.8562,1.8648,0,1.7973,1.808,1.8096,1.819,1.8242,1.8241,1.8294,1.8333,1.8354,1.8401,1.8424,1.8478,1.8459,1.8478,1.8518,1.8543,1.8594,1.8538,1.8603,1.8605,1.8588,1.869,1.8699,1.8778,1.866,1.8662,1.8663,0,1.8088,1.8135,1.8234,1.8281,1.8303,1.835,1.8403,1.8449,1.8493,1.8505,1.8542,1.8547,1.8609,1.8576,1.866,1.8622,1.865,1.8666,1.867,1.8675,1.8636,1.8695,1.8804,1.8815,1.8681,1.868,1.8679,0,1.8145,1.8234,1.8304,1.8328,1.8385,1.8418,1.8443,1.8485,1.8518,1.8565,1.8586,1.8639,1.8668,1.8709,1.8727,1.8702,1.881,1.8779,1.8821,1.882,1.8842,1.884,1.8954,1.8864,1.8864,1.8863,1.8863,0,1.8239,1.8299,1.8331,1.8374,1.8441,1.8458,1.8524,1.8548,1.8585,1.8632,1.8636,1.868,1.8702,1.875,1.8765,1.8831,1.8845,1.8856,1.8859,1.8854,1.8852,1.8871,1.8865,1.8867,1.8866,1.8865,1.8865,0,1.8313,1.8337,1.8414,1.8461,1.8475,1.8522,1.8562,1.8604,1.8624,1.8684,1.8699,1.8731,1.8787,1.881,1.8879,1.8889,1.8964,1.8964,1.8949,1.8949,1.8989,1.8984,1.9117,1.9135,1.9035,1.9036,1.9037,0,1.837,1.8416,1.8469,1.85,1.8527,1.8578,1.8611,1.863,1.8665,1.8718,1.8753,1.8809,1.8854,1.8943,1.8972,1.9025,1.9024,1.9068,1.9032,1.9025,1.9022,1.9018,1.9022,1.9073,1.9074,1.9075,1.9076,0,1.8467,1.8477,1.8525,1.8577,1.8617,1.8659,1.87,1.8726,1.8751,1.879,1.8847,1.8882,1.8951,1.9006,1.906,1.9085,1.9084,1.9087,1.9099,1.9094,1.9082,1.9086,1.8964,1.9083,1.9083,1.9082,1.9082,1.9081,1.8533,1.8573,1.8616,1.8669,1.8702,1.8741,1.8781,1.8807,1.8855,1.8912,1.8921,1.8981,1.9023,1.9095,1.9123,1.917,1.9159,1.9177,1.9181,1.9184,1.9186,1.9076,1.918,1.918,1.918,1.918,1.918,0,1.8628,1.8656,1.8705,1.8762,1.8804,1.88,1.8845,1.888,1.8933,1.8972,1.9017,1.9081,1.9134,1.9168,1.9221,1.9252,1.9252,1.9265,1.9261,1.9267,1.9194,1.9177,1.9263,1.9263,1.9263,1.9263,1.9263,1.9263,1.8683,1.875,1.8764,1.8848,1.8875,1.8934,1.896,1.8994,1.9026,1.9098,1.9142,1.9163,1.92,1.9256,1.9303,1.9312,1.933,1.9343,1.935,1.9281,1.9272,1.9264,1.9248,1.9348,1.9348,1.9419,1.942,1.942]},{"header":{"parameterUnit":"m.s-1","parameterCategory":1,"la1":30.2991,"la2":30.254,"lo1":-89.0895,"lo2":-89.0444,"dy":0.0017,"dx":0.0017,"nx":28,"ny":28,"refTime":"2025-08-24T03:00:00:Z","depth":0,"parameterNumber":3,"parameterNumberName":"V-component_of_WINDS"},"data":[0,0,0,0,0,0,0,0,0,0,0,0,0,0,0,0,0,0,0,0,0,0,0,0,0,0,0,0,0,0,0,0,0,0,0,0,0,0,0,0,0,0,0,0,0,0,0,0,0,0,0,0,0,0,0,0,0,0,2.8061,2.8061,0,2.8091,2.8091,2.8092,2.8033,2.8032,2.803,2.8028,2.806,2.8063,2.8065,0,0,0,0,0,0,0,0,0,0,0,0,0,2.7951,2.7953,2.8061,2.8061,2.8061,2.8091,2.8091,2.8092,2.8034,2.8031,2.8029,2.8027,2.8059,2.8062,2.8065,0,0,0,0,0,0,0,0,0,0,0,0,0,2.7991,2.7954,2.8061,2.8036,2.8034,2.8091,2.8091,2.8092,2.8034,2.8031,2.8028,2.8026,2.8058,2.8062,2.8066,2.8148,0,0,2.8078,2.808,0,0,0,0,0,0,0,0,2.7989,2.7996,2.8039,2.8038,2.8036,2.8055,2.8064,2.8111,2.8035,2.8034,2.8028,2.8024,2.8061,2.8064,2.8076,2.815,2.8151,2.8078,2.8081,2.8082,2.8084,0,0,0,0,0,0,0,2.7986,2.7994,2.8073,2.804,2.8038,2.8023,2.8025,2.8073,2.8063,2.8034,2.803,2.8034,2.8059,2.8073,2.8077,2.8151,2.8078,2.8082,2.8084,2.8086,2.8287,2.829,0,0,0,0,0,0,2.7987,2.7992,2.8072,2.8074,2.8005,2.8027,2.803,2.8052,2.8063,2.8062,2.8037,2.8031,2.8067,2.8072,2.8078,2.817,2.8082,2.8086,2.8088,2.8284,2.8288,2.8291,0,0,0,0,0,0,2.7985,2.7994,2.807,2.8032,2.804,2.8032,2.8057,2.8054,2.8067,2.8065,2.8063,2.8052,2.8065,2.8072,2.813,2.8171,2.8088,2.8092,2.8281,2.8285,2.829,2.836,0,0,0,0,0,0,2.7982,2.7994,2.8026,2.8033,2.8042,2.8123,2.806,2.8057,2.8074,2.8068,2.8079,2.8078,2.8064,2.8124,2.8133,2.8175,2.8095,2.8277,2.8283,2.8288,2.8354,2.8366,2.8376,0,0,0,0,0,2.7978,2.8046,2.8028,2.8038,2.8082,2.8126,2.8131,2.8113,2.8078,2.8109,2.8106,2.8077,2.8165,2.813,2.8141,2.8184,2.8274,2.8281,2.8288,2.8348,2.8363,2.8376,0,0,0,0,0,0,2.8047,2.8047,2.8027,2.81,2.8113,2.8116,2.8155,2.813,2.8154,2.8147,2.8124,2.8127,2.8188,2.8192,2.8153,2.8261,2.8214,2.8223,2.8256,2.8271,2.8282,2.8279,2.8098,0,0,0,0,0,2.807,2.8106,2.8104,2.8168,2.8175,2.8164,2.8182,2.8166,2.8179,2.8185,2.8187,2.8201,2.823,2.8251,2.8279,2.8354,2.8353,2.8388,2.84,2.8409,2.8417,2.8452,2.8466,2.8313,2.8313,2.8313,0,0,2.812,2.8124,2.8148,2.8182,2.819,2.8225,2.8169,2.8211,2.8236,2.8192,2.8244,2.8246,2.8259,2.8325,2.8353,2.833,2.8459,2.8418,2.8425,2.8428,2.846,2.8474,2.8487,2.8318,2.8317,2.8316,0,0,2.8227,2.8235,2.8287,2.8295,2.8307,2.8299,2.8311,2.8317,2.8315,2.8368,2.8334,2.8363,2.8417,2.8426,2.8438,2.8543,2.8515,2.8553,2.8612,2.8647,2.8658,2.8669,2.8703,2.8715,2.8561,2.8561,2.8561,0,2.8287,2.8339,2.8317,2.8359,2.8372,2.8332,2.8382,2.8392,2.8414,2.8423,2.8396,2.8459,2.8466,2.853,2.8555,2.8567,2.8578,2.8551,2.8659,2.8669,2.8678,2.871,2.8723,2.8565,2.8564,2.8564,2.8564,0,2.8409,2.8446,2.8486,2.8505,2.8523,2.857,2.8553,2.8575,2.8556,2.855,2.8601,2.8607,2.8633,2.8647,2.8631,2.8708,2.8692,2.8663,2.8614,2.8697,2.8727,2.8739,2.8571,2.8569,2.8568,2.8567,0,0,2.8564,2.8566,2.8581,2.8586,2.8594,2.8622,2.8664,2.8688,2.8705,2.872,2.8753,2.8797,2.8768,2.8781,2.8765,2.8796,2.8873,2.8761,2.8761,2.8779,2.8953,2.8973,2.8988,2.8855,2.8857,2.8859,2.895,0,2.8667,2.8739,2.8718,2.879,2.8821,2.878,2.8817,2.8825,2.8819,2.8844,2.8837,2.8867,2.8828,2.8835,2.8863,2.8858,2.8907,2.8851,2.8884,2.8885,2.8879,2.9004,2.9027,2.9113,2.8962,2.8964,2.8966,0,2.8798,2.8814,2.8889,2.8886,2.8899,2.8932,2.8949,2.8974,2.8981,2.8974,2.8986,2.8963,2.9002,2.8954,2.9006,2.8968,2.898,2.8979,2.8982,2.8983,2.8929,2.9005,2.9141,2.9152,2.8984,2.8983,2.8981,0,2.8897,2.8939,2.8987,2.8994,2.8994,2.9017,2.9019,2.9023,2.9036,2.9051,2.9059,2.908,2.9091,2.9106,2.9087,2.9055,2.9141,2.9092,2.9134,2.9134,2.9153,2.9152,2.929,2.9165,2.9165,2.9165,2.9165,0,2.9014,2.906,2.9031,2.9061,2.911,2.9085,2.9134,2.9131,2.9134,2.916,2.9128,2.9154,2.9129,2.9152,2.9138,2.918,2.9187,2.918,2.9176,2.9182,2.9182,2.9188,2.9181,2.9168,2.9168,2.9167,2.9166,0,2.9134,2.9117,2.9166,2.916,2.916,2.9196,2.919,2.9217,2.9207,2.9241,2.9247,2.9232,2.9257,2.924,2.9266,2.9256,2.9311,2.9299,2.9308,2.9304,2.9345,2.934,2.949,2.9506,2.9374,2.9375,2.9376,0,2.9208,2.9242,2.9238,2.9253,2.9255,2.928,2.9293,2.9268,2.9282,2.9289,2.9314,2.9336,2.9351,2.9393,2.9383,2.9402,2.9388,2.9439,2.9391,2.9395,2.9385,2.9382,2.9383,2.9449,2.945,2.9451,2.9452,0,2.934,2.9328,2.9348,2.9362,2.9377,2.9389,2.9397,2.9411,2.9385,2.9403,2.9426,2.9438,2.9462,2.9483,2.9497,2.9497,2.947,2.9467,2.9477,2.9483,2.9485,2.9481,2.9332,2.9464,2.9463,2.9462,2.9461,2.9461,2.9437,2.9463,2.9463,2.9484,2.9486,2.9494,2.9516,2.9507,2.9527,2.9543,2.9527,2.9555,2.9556,2.9572,2.9575,2.9595,2.9574,2.959,2.9593,2.9596,2.96,2.9484,2.9598,2.9597,2.9597,2.9597,2.9597,0,2.9564,2.9561,2.958,2.9591,2.9606,2.9577,2.9584,2.9599,2.9623,2.9626,2.9641,2.9666,2.9685,2.9675,2.9691,2.9709,2.9696,2.9713,2.9711,2.971,2.962,2.9608,2.9723,2.9723,2.9723,2.9723,2.9723,2.9723,2.9632,2.9673,2.9661,2.9701,2.9698,2.9723,2.9728,2.9734,2.9736,2.9764,2.9779,2.9772,2.9769,2.9783,2.9798,2.9795,2.9801,2.9822,2.9814,2.973,2.9717,2.9705,2.9694,2.9824,2.9825,2.9902,2.9902,2.9903]}]]